GFSFLT1_prec_precacc24_192.txt.gz
Total_Precipitation_Accumulation
0.00 0.00 0.00 0.00 0.00 0.00 0.00 0.00 0.00 0.00 0.00 0.00 0.00 0.00 0.00 0.00 0.00 0.00 0.00 0.00 0.00 0.00 0.00 0.00 0.00 0.00 0.00 0.00 0.00 0.00 0.00 0.00
0.00 0.00 0.00 0.00 0.00 0.00 0.01 0.00 0.00 0.00 0.00 0.00 0.00 0.00 0.00 0.00 0.00 0.00 0.00 0.00 0.00 0.00 0.00 0.00 0.00 0.00 0.00 0.00 0.00 0.00 0.00 0.00
0.00 0.00 0.00 0.00 0.00 0.00 0.01 0.00 0.00 0.00 0.00 0.00 0.00 0.00 0.00 0.00 0.00 0.00 0.00 0.00 0.00 0.00 0.00 0.00 0.00 0.00 0.00 0.00 0.00 0.00 0.00 0.00
0.00 0.00 0.00 0.00 0.00 0.00 0.02 0.02 0.01 0.00 0.00 0.00 0.00 0.00 0.00 0.00 0.00 0.00 0.00 0.00 0.00 0.00 0.00 0.00 0.00 0.00 0.00 0.00 0.00 0.00 0.00 0.00
0.00 0.00 0.00 0.00 0.00 0.00 0.02 0.02 0.01 0.00 0.00 0.00 0.00 0.00 0.00 0.00 0.00 0.00 0.00 0.00 0.00 0.00 0.00 0.00 0.00 0.00 0.00 0.00 0.00 0.00 0.00 0.00
0.00 0.00 0.00 0.00 0.00 0.02 0.03 0.03 0.02 0.01 0.01 0.00 0.00 0.00 0.00 0.00 0.00 0.00 0.00 0.00 0.00 0.00 0.00 0.00 0.00 0.00 0.00 0.00 0.00 0.00 0.00 0.00
0.00 0.00 0.00 0.00 0.00 0.04 0.05 0.04 0.04 0.02 0.02 0.01 0.00 0.00 0.00 0.00 0.00 0.00 0.00 0.00 0.00 0.00 0.00 0.00 0.00 0.00 0.00 0.00 0.00 0.00 0.00 0.00
0.00 0.00 0.00 0.00 0.00 0.01 0.03 0.03 0.03 0.03 0.03 0.02 0.01 0.01 0.00 0.00 0.00 0.00 0.00 0.00 0.00 0.00 0.00 0.00 0.00 0.00 0.00 0.00 0.00 0.00 0.00 0.00
0.00 0.00 0.00 0.00 0.00 0.00 0.00 0.00 0.01 0.01 0.01 0.02 0.01 0.02 0.01 0.00 0.00 0.00 0.00 0.00 0.00 0.00 0.00 0.00 0.00 0.00 0.00 0.00 0.00 0.00 0.00 0.00
0.00 0.00 0.00 0.00 0.00 0.00 0.00 0.00 0.00 0.00 0.00 0.02 0.03 0.04 0.03 0.02 0.01 0.01 0.00 0.00 0.00 0.00 0.01 0.01 0.00 0.00 0.00 0.00 0.00 0.00 0.00 0.00
0.00 0.00 0.00 0.00 0.00 0.00 0.00 0.00 0.00 0.00 0.00 0.01 0.02 0.02 0.02 0.02 0.01 0.01 0.01 0.01 0.02 0.03 0.04 0.05 0.04 0.01 0.00 0.00 0.00 0.00 0.00 0.00
0.00 0.00 0.00 0.00 0.00 0.00 0.00 0.00 0.00 0.00 0.00 0.01 0.02 0.03 0.03 0.02 0.01 0.01 0.01 0.01 0.01 0.02 0.03 0.02 0.01 0.00 0.00 0.00 0.00 0.00 0.00 0.00
0.00 0.00 0.00 0.00 0.01 0.02 0.04 0.05 0.04 0.02 0.03 0.03 0.05 0.05 0.05 0.06 0.07 0.05 0.02 0.02 0.03 0.03 0.03 0.02 0.01 0.01 0.01 0.00 0.00 0.00 0.00 0.00
0.05 0.05 0.04 0.04 0.05 0.09 0.15 0.16 0.17 0.13 0.11 0.10 0.10 0.09 0.07 0.08 0.08 0.08 0.09 0.10 0.10 0.09 0.07 0.06 0.05 0.03 0.02 0.01 0.01 0.00 0.00 0.00
0.18 0.25 0.27 0.29 0.36 0.39 0.39 0.35 0.33 0.32 0.25 0.20 0.19 0.19 0.19 0.19 0.19 0.19 0.17 0.14 0.09 0.05 0.03 0.02 0.01 0.01 0.01 0.00 0.00 0.00 0.00 0.00
0.01 0.02 0.04 0.07 0.10 0.15 0.20 0.28 0.34 0.27 0.20 0.21 0.24 0.24 0.26 0.30 0.28 0.23 0.18 0.12 0.05 0.02 0.01 0.00 0.00 0.02 0.02 0.00 0.00 0.00 0.00 0.00
0.00 0.00 0.01 0.00 0.00 0.00 0.01 0.05 0.13 0.26 0.27 0.22 0.21 0.23 0.25 0.24 0.18 0.14 0.09 0.05 0.02 0.01 0.00 0.00 0.00 0.02 0.02 0.00 0.00 0.00 0.00 0.00
0.02 0.00 0.01 0.02 0.01 0.00 0.00 0.00 0.00 0.02 0.12 0.20 0.23 0.20 0.19 0.15 0.14 0.12 0.07 0.05 0.03 0.01 0.00 0.00 0.01 0.01 0.01 0.01 0.01 0.00 0.00 0.00
0.02 0.01 0.01 0.04 0.05 0.03 0.03 0.02 0.02 0.04 0.07 0.12 0.15 0.14 0.12 0.10 0.09 0.07 0.06 0.05 0.04 0.01 0.00 0.00 0.01 0.00 0.00 0.00 0.00 0.00 0.00 0.00

GFSFLT1_prec_precacc24_195.txt.gz
Total_Precipitation_Accumulation
0.00 0.00 0.00 0.00 0.00 0.00 0.00 0.00 0.00 0.00 0.00 0.00 0.00 0.00 0.00 0.00 0.00 0.00 0.00 0.00 0.00 0.00 0.00 0.00 0.00 0.00 0.00 0.00 0.00 0.00 0.00 0.00
0.00 0.00 0.00 0.00 0.00 0.00 0.01 0.00 0.00 0.00 0.00 0.00 0.00 0.00 0.00 0.00 0.00 0.00 0.00 0.00 0.00 0.00 0.00 0.00 0.00 0.00 0.00 0.00 0.00 0.00 0.00 0.00
0.00 0.00 0.00 0.00 0.00 0.00 0.01 0.00 0.00 0.00 0.00 0.00 0.00 0.00 0.00 0.00 0.00 0.00 0.00 0.00 0.00 0.00 0.00 0.00 0.00 0.00 0.00 0.00 0.00 0.00 0.00 0.00
0.00 0.00 0.00 0.00 0.00 0.00 0.02 0.02 0.01 0.00 0.00 0.00 0.00 0.00 0.00 0.00 0.00 0.00 0.00 0.00 0.00 0.00 0.00 0.00 0.00 0.00 0.00 0.00 0.00 0.00 0.00 0.00
0.00 0.00 0.00 0.00 0.00 0.00 0.02 0.02 0.01 0.01 0.01 0.00 0.00 0.00 0.00 0.00 0.00 0.00 0.00 0.00 0.00 0.00 0.00 0.00 0.00 0.00 0.00 0.00 0.00 0.00 0.00 0.00
0.00 0.00 0.00 0.00 0.00 0.03 0.06 0.06 0.05 0.04 0.03 0.01 0.00 0.00 0.00 0.00 0.00 0.00 0.00 0.00 0.00 0.00 0.00 0.00 0.00 0.00 0.00 0.00 0.00 0.00 0.00 0.00
0.00 0.00 0.00 0.00 0.01 0.08 0.15 0.09 0.07 0.06 0.05 0.03 0.01 0.00 0.00 0.00 0.00 0.00 0.00 0.00 0.00 0.00 0.00 0.00 0.00 0.00 0.00 0.00 0.00 0.00 0.00 0.00
0.00 0.00 0.00 0.00 0.01 0.05 0.10 0.09 0.08 0.07 0.07 0.06 0.03 0.01 0.00 0.00 0.00 0.00 0.00 0.00 0.00 0.00 0.00 0.00 0.00 0.00 0.00 0.00 0.00 0.00 0.00 0.00
0.00 0.00 0.00 0.00 0.00 0.04 0.05 0.05 0.03 0.02 0.02 0.03 0.03 0.02 0.01 0.00 0.00 0.00 0.00 0.00 0.00 0.00 0.00 0.00 0.00 0.00 0.00 0.00 0.00 0.00 0.00 0.00
0.00 0.00 0.00 0.00 0.00 0.00 0.03 0.04 0.02 0.01 0.01 0.03 0.07 0.06 0.04 0.02 0.01 0.01 0.00 0.01 0.01 0.01 0.01 0.01 0.00 0.00 0.00 0.00 0.00 0.01 0.00 0.00
0.00 0.00 0.00 0.00 0.00 0.00 0.00 0.01 0.02 0.00 0.01 0.04 0.08 0.09 0.05 0.02 0.01 0.01 0.02 0.04 0.05 0.05 0.06 0.07 0.07 0.07 0.06 0.07 0.06 0.05 0.03 0.01
0.10 0.03 0.00 0.00 0.00 0.00 0.00 0.00 0.00 0.00 0.01 0.02 0.05 0.09 0.10 0.07 0.02 0.01 0.01 0.02 0.04 0.07 0.08 0.10 0.12 0.13 0.09 0.06 0.04 0.03 0.01 0.00
0.15 0.11 0.01 0.00 0.01 0.02 0.04 0.05 0.04 0.02 0.03 0.04 0.08 0.07 0.08 0.08 0.09 0.07 0.04 0.05 0.06 0.06 0.05 0.04 0.02 0.02 0.02 0.01 0.01 0.01 0.00 0.00
0.09 0.14 0.08 0.05 0.05 0.09 0.15 0.16 0.17 0.13 0.11 0.10 0.11 0.11 0.11 0.13 0.15 0.15 0.14 0.13 0.12 0.11 0.11 0.10 0.08 0.05 0.03 0.01 0.01 0.01 0.00 0.00
0.19 0.28 0.28 0.29 0.36 0.39 0.39 0.35 0.33 0.32 0.25 0.20 0.19 0.20 0.21 0.23 0.24 0.25 0.25 0.20 0.14 0.08 0.06 0.04 0.02 0.02 0.01 0.00 0.00 0.00 0.00 0.00
0.01 0.03 0.09 0.08 0.11 0.15 0.20 0.28 0.34 0.27 0.20 0.21 0.24 0.24 0.28 0.33 0.33 0.30 0.28 0.23 0.16 0.10 0.06 0.03 0.03 0.02 0.01 0.00 0.00 0.00 0.00 0.00
0.00 0.01 0.03 0.03 0.03 0.00 0.01 0.05 0.13 0.26 0.27 0.22 0.21 0.23 0.26 0.26 0.22 0.21 0.17 0.12 0.08 0.05 0.04 0.02 0.01 0.02 0.02 0.01 0.01 0.01 0.01 0.01
0.03 0.05 0.08 0.16 0.06 0.00 0.00 0.00 0.00 0.02 0.12 0.20 0.23 0.21 0.19 0.16 0.16 0.15 0.11 0.09 0.08 0.05 0.02 0.00 0.04 0.05 0.02 0.01 0.01 0.01 0.01 0.00
0.05 0.03 0.02 0.09 0.09 0.04 0.03 0.02 0.02 0.04 0.07 0.12 0.15 0.15 0.13 0.13 0.13 0.10 0.09 0.09 0.09 0.07 0.03 0.04 0.08 0.02 0.01 0.01 0.01 0.01 0.01 0.01

GFSFLT1_prec_precacc24_201.txt.gz
Total_Precipitation_Accumulation
0.00 0.00 0.00 0.00 0.00 0.00 0.00 0.00 0.00 0.00 0.00 0.00 0.00 0.00 0.00 0.00 0.00 0.00 0.00 0.00 0.00 0.00 0.00 0.00 0.00 0.00 0.00 0.00 0.00 0.00 0.00 0.00
0.00 0.00 0.00 0.00 0.00 0.00 0.01 0.00 0.00 0.00 0.00 0.00 0.00 0.00 0.00 0.00 0.00 0.00 0.00 0.00 0.00 0.00 0.00 0.00 0.00 0.00 0.00 0.00 0.00 0.00 0.00 0.00
0.00 0.00 0.00 0.00 0.00 0.00 0.01 0.00 0.00 0.00 0.00 0.00 0.00 0.00 0.00 0.00 0.00 0.00 0.00 0.00 0.00 0.00 0.00 0.00 0.00 0.00 0.00 0.00 0.00 0.00 0.00 0.00
0.00 0.00 0.00 0.00 0.00 0.00 0.02 0.02 0.01 0.00 0.01 0.00 0.00 0.00 0.00 0.00 0.00 0.00 0.00 0.00 0.00 0.00 0.00 0.00 0.00 0.00 0.00 0.00 0.00 0.00 0.00 0.00
0.00 0.00 0.00 0.00 0.00 0.00 0.02 0.02 0.01 0.01 0.02 0.02 0.01 0.01 0.00 0.01 0.01 0.01 0.00 0.00 0.00 0.00 0.00 0.00 0.00 0.00 0.00 0.00 0.00 0.00 0.00 0.00
0.00 0.00 0.00 0.00 0.00 0.03 0.06 0.07 0.05 0.06 0.07 0.06 0.05 0.04 0.03 0.02 0.02 0.02 0.01 0.00 0.00 0.00 0.00 0.00 0.00 0.00 0.00 0.00 0.00 0.00 0.00 0.00
0.00 0.00 0.00 0.00 0.01 0.09 0.16 0.11 0.10 0.10 0.11 0.09 0.10 0.08 0.06 0.05 0.03 0.03 0.02 0.01 0.00 0.00 0.00 0.00 0.00 0.00 0.00 0.00 0.00 0.00 0.00 0.00
0.00 0.00 0.00 0.00 0.03 0.11 0.19 0.19 0.18 0.19 0.19 0.18 0.16 0.12 0.12 0.11 0.07 0.04 0.03 0.02 0.01 0.01 0.00 0.00 0.00 0.00 0.00 0.00 0.00 0.00 0.00 0.00
0.00 0.00 0.00 0.00 0.01 0.09 0.14 0.19 0.19 0.18 0.19 0.19 0.17 0.12 0.09 0.08 0.08 0.07 0.06 0.05 0.05 0.02 0.01 0.01 0.00 0.00 0.00 0.00 0.00 0.00 0.00 0.00
0.00 0.00 0.00 0.00 0.00 0.02 0.08 0.15 0.17 0.16 0.15 0.16 0.24 0.30 0.30 0.30 0.36 0.43 0.48 0.48 0.36 0.15 0.03 0.01 0.01 0.00 0.01 0.01 0.01 0.02 0.02 0.02
0.00 0.00 0.00 0.00 0.00 0.00 0.00 0.04 0.15 0.23 0.35 0.41 0.45 0.40 0.28 0.23 0.26 0.20 0.18 0.18 0.20 0.12 0.11 0.11 0.12 0.12 0.10 0.11 0.10 0.08 0.07 0.06
0.10 0.04 0.01 0.00 0.00 0.00 0.00 0.00 0.00 0.03 0.09 0.20 0.41 0.63 0.61 0.44 0.25 0.16 0.09 0.08 0.10 0.13 0.19 0.24 0.26 0.28 0.28 0.29 0.28 0.26 0.25 0.22
0.16 0.15 0.08 0.01 0.01 0.01 0.02 0.04 0.03 0.02 0.04 0.07 0.15 0.22 0.32 0.36 0.35 0.30 0.15 0.13 0.17 0.21 0.19 0.15 0.12 0.14 0.17 0.20 0.20 0.18 0.16 0.14
0.08 0.14 0.12 0.06 0.06 0.09 0.15 0.16 0.18 0.14 0.12 0.11 0.12 0.18 0.26 0.36 0.40 0.36 0.31 0.28 0.28 0.30 0.28 0.26 0.23 0.24 0.27 0.24 0.18 0.13 0.10 0.09
0.10 0.24 0.28 0.29 0.35 0.39 0.39 0.35 0.33 0.32 0.26 0.21 0.20 0.22 0.24 0.29 0.37 0.45 0.54 0.58 0.56 0.48 0.41 0.31 0.26 0.22 0.15 0.09 0.07 0.06 0.05 0.05
0.01 0.02 0.08 0.08 0.11 0.15 0.22 0.28 0.35 0.28 0.21 0.22 0.24 0.25 0.29 0.35 0.35 0.35 0.38 0.41 0.41 0.38 0.37 0.34 0.22 0.11 0.05 0.02 0.01 0.01 0.01 0.01
0.00 0.01 0.03 0.03 0.03 0.03 0.04 0.09 0.17 0.29 0.28 0.22 0.21 0.23 0.26 0.27 0.24 0.25 0.25 0.23 0.21 0.20 0.16 0.10 0.06 0.05 0.04 0.03 0.01 0.01 0.01 0.01
0.03 0.05 0.09 0.19 0.10 0.10 0.11 0.08 0.06 0.05 0.13 0.20 0.23 0.21 0.19 0.16 0.16 0.16 0.15 0.15 0.15 0.13 0.11 0.06 0.08 0.11 0.07 0.05 0.01 0.01 0.01 0.01
0.08 0.06 0.06 0.14 0.16 0.10 0.10 0.10 0.05 0.03 0.07 0.12 0.15 0.15 0.13 0.13 0.13 0.11 0.10 0.11 0.12 0.11 0.07 0.07 0.16 0.09 0.03 0.02 0.01 0.01 0.01 0.01

GFSFLT1_prec_precacc24_204.txt.gz
Total_Precipitation_Accumulation
0.00 0.00 0.00 0.00 0.00 0.00 0.00 0.00 0.00 0.00 0.00 0.00 0.00 0.00 0.00 0.00 0.00 0.00 0.00 0.00 0.00 0.00 0.00 0.00 0.00 0.00 0.00 0.00 0.00 0.00 0.00 0.00
0.00 0.00 0.00 0.00 0.00 0.00 0.01 0.00 0.00 0.00 0.00 0.00 0.00 0.00 0.00 0.00 0.00 0.00 0.00 0.00 0.00 0.00 0.00 0.00 0.00 0.00 0.00 0.00 0.00 0.00 0.00 0.00
0.00 0.00 0.00 0.00 0.00 0.00 0.01 0.00 0.00 0.00 0.00 0.00 0.00 0.00 0.00 0.00 0.00 0.00 0.00 0.00 0.00 0.00 0.00 0.00 0.00 0.00 0.00 0.00 0.00 0.00 0.00 0.00
0.00 0.00 0.00 0.00 0.00 0.00 0.02 0.02 0.01 0.00 0.01 0.00 0.00 0.00 0.00 0.00 0.00 0.00 0.00 0.01 0.00 0.00 0.00 0.00 0.00 0.00 0.00 0.00 0.00 0.00 0.00 0.00
0.00 0.00 0.00 0.00 0.00 0.00 0.02 0.02 0.01 0.01 0.02 0.03 0.02 0.01 0.01 0.01 0.02 0.05 0.05 0.03 0.01 0.00 0.00 0.00 0.00 0.00 0.00 0.00 0.00 0.00 0.00 0.00
0.00 0.00 0.00 0.00 0.00 0.02 0.06 0.07 0.05 0.06 0.07 0.06 0.06 0.05 0.05 0.05 0.09 0.11 0.08 0.05 0.02 0.01 0.00 0.00 0.00 0.00 0.00 0.00 0.00 0.00 0.00 0.00
0.00 0.00 0.00 0.00 0.01 0.09 0.16 0.11 0.10 0.10 0.12 0.10 0.11 0.09 0.07 0.08 0.07 0.08 0.08 0.06 0.03 0.02 0.01 0.01 0.00 0.00 0.00 0.00 0.00 0.00 0.00 0.00
0.00 0.00 0.00 0.00 0.03 0.11 0.19 0.19 0.18 0.19 0.19 0.18 0.16 0.13 0.13 0.12 0.09 0.08 0.07 0.06 0.06 0.05 0.03 0.02 0.01 0.01 0.01 0.01 0.00 0.00 0.00 0.00
0.00 0.00 0.00 0.00 0.01 0.09 0.14 0.19 0.19 0.18 0.19 0.19 0.17 0.13 0.09 0.09 0.09 0.10 0.09 0.09 0.10 0.11 0.13 0.16 0.17 0.19 0.18 0.16 0.13 0.03 0.00 0.00
0.00 0.00 0.00 0.00 0.00 0.02 0.08 0.15 0.17 0.16 0.15 0.16 0.24 0.30 0.30 0.32 0.39 0.47 0.55 0.59 0.59 0.59 0.58 0.54 0.48 0.37 0.19 0.12 0.10 0.07 0.04 0.02
0.00 0.00 0.00 0.00 0.00 0.00 0.00 0.04 0.15 0.23 0.35 0.41 0.45 0.40 0.28 0.24 0.31 0.38 0.40 0.41 0.47 0.48 0.46 0.41 0.33 0.29 0.22 0.18 0.16 0.11 0.09 0.09
0.10 0.04 0.01 0.00 0.00 0.00 0.00 0.00 0.00 0.03 0.09 0.20 0.41 0.63 0.61 0.45 0.28 0.20 0.21 0.23 0.24 0.28 0.35 0.42 0.45 0.42 0.39 0.40 0.41 0.38 0.36 0.34
0.16 0.15 0.08 0.01 0.01 0.00 0.00 0.01 0.02 0.02 0.03 0.07 0.14 0.22 0.32 0.36 0.35 0.33 0.24 0.22 0.26 0.31 0.31 0.32 0.28 0.31 0.34 0.35 0.34 0.30 0.25 0.19
0.04 0.10 0.08 0.02 0.01 0.01 0.06 0.11 0.13 0.10 0.09 0.10 0.12 0.18 0.26 0.36 0.41 0.38 0.34 0.31 0.32 0.34 0.39 0.45 0.46 0.50 0.56 0.53 0.43 0.30 0.17 0.11
0.00 0.04 0.07 0.07 0.10 0.17 0.27 0.29 0.31 0.31 0.26 0.21 0.20 0.22 0.24 0.30 0.39 0.49 0.62 0.68 0.68 0.63 0.56 0.49 0.48 0.52 0.47 0.36 0.24 0.14 0.09 0.06
0.00 0.01 0.05 0.01 0.03 0.09 0.16 0.24 0.33 0.28 0.21 0.22 0.24 0.25 0.30 0.35 0.37 0.38 0.48 0.59 0.63 0.66 0.65 0.63 0.54 0.38 0.24 0.12 0.06 0.03 0.02 0.02
0.00 0.01 0.03 0.03 0.03 0.03 0.04 0.08 0.16 0.30 0.30 0.23 0.21 0.23 0.27 0.27 0.26 0.27 0.28 0.28 0.29 0.34 0.33 0.29 0.25 0.16 0.12 0.08 0.03 0.02 0.02 0.01
0.03 0.05 0.09 0.19 0.10 0.10 0.12 0.08 0.07 0.07 0.14 0.20 0.23 0.22 0.19 0.17 0.17 0.19 0.18 0.18 0.18 0.16 0.15 0.10 0.12 0.14 0.11 0.06 0.02 0.01 0.01 0.01
0.08 0.06 0.05 0.14 0.16 0.11 0.11 0.11 0.07 0.04 0.05 0.10 0.14 0.14 0.13 0.13 0.14 0.12 0.13 0.15 0.16 0.16 0.11 0.11 0.19 0.10 0.04 0.02 0.01 0.01 0.01 0.01

GFSFLT1_prec_precacc24_210.txt.gz
Total_Precipitation_Accumulation
0.00 0.00 0.00 0.00 0.00 0.00 0.00 0.00 0.00 0.00 0.00 0.00 0.01 0.00 0.00 0.00 0.01 0.02 0.02 0.01 0.01 0.01 0.01 0.00 0.00 0.00 0.00 0.00 0.00 0.00 0.00 0.00
0.00 0.00 0.00 0.00 0.00 0.00 0.00 0.00 0.00 0.01 0.01 0.02 0.01 0.00 0.00 0.00 0.00 0.01 0.03 0.01 0.01 0.02 0.02 0.01 0.00 0.00 0.00 0.00 0.00 0.00 0.00 0.00
0.00 0.00 0.00 0.00 0.00 0.00 0.00 0.00 0.00 0.00 0.01 0.01 0.00 0.00 0.00 0.00 0.00 0.02 0.03 0.05 0.07 0.05 0.04 0.02 0.01 0.01 0.00 0.00 0.00 0.00 0.00 0.00
0.00 0.00 0.00 0.00 0.00 0.00 0.00 0.00 0.00 0.00 0.01 0.02 0.02 0.02 0.01 0.01 0.01 0.01 0.03 0.10 0.15 0.10 0.07 0.05 0.03 0.01 0.00 0.00 0.00 0.00 0.00 0.00
0.00 0.00 0.00 0.00 0.00 0.00 0.00 0.00 0.00 0.01 0.03 0.04 0.04 0.03 0.02 0.01 0.03 0.06 0.08 0.12 0.13 0.12 0.08 0.06 0.04 0.03 0.01 0.00 0.00 0.00 0.00 0.00
0.00 0.00 0.00 0.00 0.00 0.01 0.03 0.04 0.04 0.05 0.07 0.07 0.07 0.06 0.05 0.05 0.10 0.12 0.10 0.09 0.08 0.07 0.05 0.04 0.03 0.02 0.01 0.01 0.00 0.00 0.00 0.00
0.00 0.00 0.00 0.00 0.01 0.05 0.12 0.07 0.07 0.09 0.11 0.10 0.11 0.09 0.08 0.08 0.08 0.08 0.08 0.07 0.05 0.04 0.05 0.05 0.04 0.03 0.04 0.03 0.02 0.01 0.01 0.00
0.00 0.00 0.00 0.00 0.03 0.11 0.17 0.16 0.16 0.17 0.18 0.17 0.16 0.13 0.14 0.12 0.09 0.08 0.08 0.07 0.07 0.06 0.05 0.05 0.04 0.04 0.05 0.06 0.04 0.03 0.02 0.01
0.00 0.00 0.00 0.00 0.01 0.09 0.14 0.19 0.18 0.18 0.19 0.19 0.17 0.13 0.09 0.09 0.09 0.10 0.10 0.09 0.10 0.12 0.14 0.17 0.19 0.22 0.24 0.24 0.25 0.23 0.16 0.10
0.00 0.00 0.00 0.00 0.00 0.02 0.08 0.15 0.17 0.16 0.15 0.16 0.23 0.30 0.30 0.32 0.39 0.47 0.55 0.59 0.59 0.59 0.59 0.57 0.55 0.48 0.43 0.38 0.35 0.32 0.30 0.24
0.00 0.00 0.00 0.00 0.00 0.00 0.00 0.04 0.15 0.23 0.35 0.41 0.45 0.39 0.28 0.24 0.31 0.38 0.40 0.41 0.47 0.48 0.46 0.42 0.36 0.33 0.31 0.31 0.29 0.25 0.23 0.21
0.10 0.04 0.01 0.00 0.00 0.00 0.00 0.00 0.00 0.03 0.09 0.20 0.41 0.63 0.61 0.45 0.27 0.20 0.20 0.23 0.24 0.29 0.35 0.42 0.46 0.43 0.42 0.45 0.48 0.49 0.49 0.48
0.16 0.15 0.08 0.01 0.01 0.00 0.00 0.00 0.00 0.00 0.01 0.05 0.12 0.20 0.29 0.32 0.31 0.30 0.23 0.22 0.27 0.36 0.38 0.40 0.35 0.38 0.40 0.41 0.42 0.40 0.40 0.40
0.04 0.10 0.08 0.02 0.01 0.00 0.00 0.00 0.01 0.01 0.01 0.01 0.04 0.12 0.21 0.31 0.36 0.34 0.30 0.29 0.34 0.41 0.46 0.52 0.57 0.69 0.82 0.80 0.69 0.56 0.48 0.43
0.00 0.03 0.02 0.00 0.00 0.00 0.00 0.00 0.00 0.00 0.01 0.01 0.02 0.06 0.11 0.19 0.29 0.41 0.58 0.69 0.72 0.71 0.72 0.70 0.69 0.69 0.67 0.66 0.69 0.69 0.61 0.51
0.00 0.01 0.05 0.01 0.00 0.00 0.02 0.00 0.01 0.01 0.02 0.03 0.05 0.10 0.17 0.26 0.32 0.36 0.49 0.65 0.73 0.83 0.85 0.88 0.86 0.80 0.73 0.62 0.54 0.49 0.45 0.44
0.00 0.01 0.03 0.03 0.03 0.03 0.03 0.04 0.04 0.06 0.10 0.09 0.10 0.15 0.20 0.23 0.24 0.27 0.29 0.29 0.31 0.43 0.63 0.68 0.70 0.65 0.68 0.72 0.71 0.62 0.51 0.39
0.03 0.05 0.09 0.19 0.10 0.10 0.12 0.08 0.07 0.06 0.08 0.11 0.15 0.17 0.18 0.17 0.18 0.21 0.20 0.22 0.26 0.27 0.30 0.34 0.48 0.60 0.63 0.57 0.48 0.43 0.36 0.33
0.08 0.06 0.05 0.11 0.14 0.11 0.11 0.12 0.06 0.03 0.04 0.08 0.12 0.12 0.11 0.12 0.13 0.12 0.14 0.18 0.24 0.28 0.28 0.29 0.40 0.33 0.27 0.28 0.27 0.26 0.25 0.22